Zurück zum Katalog

COSMOS 2374

GLONASS

AktivNavigationMEO
NORAD 26566·PAYLOAD·🇷🇺 Russia

Gestartet Oct 13, 2000 von Baikonur Cosmodrome

Loading…

Nächste Überflüge (nächste 24 Stunden)

TLE

AktuellSource: Space-Track

Epoche: Sep 14, 2026, 03:11 UTC

1 26566U 00063C   26257.13276553 -.00000051  00000-0  00000-0 0  9995
2 26566  65.1191 310.5297 0080159 208.8425 136.0696  2.13099784201646

Verfolge COSMOS 2374 in Echtzeit mit AllMySat

Download on the App Store